Weather in Karachev

Russia / Bryansk Oblast     53°07′17″N   34°58′58″E
temp.,
°C
wind,
m/s
gust,
m/s
humid.,
%
clouds,
%
prec.,
mm/h
press.,
hPa
HPBL,
m
17 may, mon
mon1700:00+14e458367 0.0 101167
03:00+13ene498138 0.0 1011150
06:00+14ene61492100 0.8 1009321
09:00+19e7138219 1.1 1007492
12:00+24ese8146167 0.0 10061079
15:00+25ese8155925 0.0 10051939
18:00+22se7136717 0.0 1004755
21:00+18se5148298 0.0 1004416
18 may, tue
tue1800:00+17se5148297 0.0 1005352
03:00+14se499570 0.6 1005180
06:00+15ese489494 0.0 1005177
09:00+19se578462 1.1 1005528
12:00+21sse697277 0.8 10051178
15:00+20sse6976100 1.9 10041015
18:00+16sse3990100 0.5 1004302
21:00+16se3991100 0.6 1004251
19 may, wed
wed1900:00+13se4109679 0.1 1004261
03:00+12se499799 0.1 1005201
06:00+13se41095100 0.0 1005300
09:00+17sse588117 0.0 1006683
12:00+19sse677098 0.4 10051321
15:00+18sse4682100 2.3 1006551
18:00+19se4681100 1.8 1005768
21:00+15se3793100 3.2 1006149
20 may, thu
thu2000:00+13s239787 0.0 100547
03:00+13s2398100 0.1 1004130
06:00+12ssw3597100 0.9 1004266
09:00+13s358945 1.2 1004426
12:00+17s677594 1.5 10041202
15:00+16s688298 4.3 1003965
18:00+12ssw61191100 1.5 1004711
21:00+10ssw71391100 1.6 1004744
21 may, fri
fri2100:00+9ssw81393100 0.1 1004891
03:00+9ssw81492100 0.1 1005872
06:00+9ssw81488100 0.1 1006905
09:00+9ssw81389100 0.3 10071359
12:00+9sw71289100 0.4 10101167
15:00+8wsw81388100 0.6 10121219
18:00+8w71389100 0.1 10141090
21:00+8sw36906 0.1 1016169